This demonstration page uses our WeatherBlox Daily Observations layout. Learn more.

Left ArrowRight Arrow

Hourly Observations for February 23, 2021

Temp ( °F °C ) Dew Point ( °F °C ) Humidity (%) Winds ( mph kmh ) Pressure ( in mb ) Visibility ( mi km ) Precip ( " mm )
12:15 am 00:15 undefined 37 2.5 29 -1.5 75 75 WNW 8 13 30.05 1018 10 16 N/A
12:35 am 00:35 undefined 36 2.4 29 -1.4 76 76 W 7 11 30.05 1018 10 16 N/A
12:55 am 00:55 undefined 37 2.6 29 -1.4 75 75 W 8 13 30.04 1017 10 16 N/A
1:15 am 01:15 undefined 36 2.4 29 -1.4 76 76 WNW 8 13 30.04 1017 10 16 N/A
1:35 am 01:35 undefined 37 2.5 29 -1.5 75 75 W 7 11 30.05 1018 10 16 N/A
1:55 am 01:55 undefined 36 2.2 30 -1.2 78 78 W 6 9 30.04 1017 10 16 N/A
2:15 am 02:15 undefined 36 2.1 29 -1.4 78 78 W 6 9 30.04 1017 10 16 N/A
2:35 am 02:35 undefined 35 1.8 29 -1.5 79 79 WSW 5 7 30.04 1017 10 16 N/A
2:55 am 02:55 undefined 35 1.8 30 -1.3 80 80 WSW 7 11 30.03 1017 10 16 N/A
3:15 am 03:15 undefined 36 2 29 -1.5 78 78 W 6 9 30.01 1016 10 16 N/A
3:35 am 03:35 undefined 34 1.3 29 -1.8 80 80 WSW 5 7 30.01 1016 10 16 N/A
3:55 am 03:55 undefined 34 0.9 28 -2 81 81 SW 3 6 30.00 1016 10 16 N/A
4:15 am 04:15 undefined 33 0.8 29 -1.8 83 83 SW 6 9 29.99 1015 10 16 N/A
4:35 am 04:35 undefined 32 0.1 28 -2 86 86 N N/A 29.99 1016 10 16 N/A
4:55 am 04:55 undefined 33 0.7 29 -1.5 85 85 WSW 3 6 29.99 1016 10 16 N/A
5:15 am 05:15 undefined 34 1.1 29 -1.5 83 83 SW 8 13 29.97 1015 10 16 N/A
5:35 am 05:35 undefined 34 1 29 -1.5 84 84 SW 7 11 29.97 1015 10 16 N/A
5:55 am 05:55 undefined 34 1 29 -1.7 82 82 SW 3 6 29.95 1014 10 16 N/A
6:15 am 06:15 undefined 33 0.3 28 -2.1 84 84 N N/A 29.95 1014 10 16 N/A
6:35 am 06:35 undefined 34 0.9 29 -1.8 82 82 N N/A 29.93 1013 10 16 N/A
6:55 am 06:55 undefined 32 undefined 28 -2.2 85 85 N N/A 29.94 1014 10 16 N/A
7:15 am 07:15 undefined 32 0.1 28 -2.2 85 85 N N/A 29.92 1013 10 16 N/A
7:35 am 07:35 undefined 32 -0.2 27 -2.6 84 84 N N/A 29.93 1013 10 16 N/A
7:55 am 07:55 undefined 32 0.1 28 -2.2 85 85 SW 6 9 29.93 1014 10 16 N/A
8:15 am 08:15 undefined 35 1.6 29 -1.8 78 78 SW 8 13 29.92 1013 10 16 N/A
8:35 am 08:35 undefined 36 2.1 28 -2 75 75 SSW 9 15 29.90 1013 10 16 N/A
8:55 am 08:55 undefined 37 3 29 -1.6 72 72 SW 12 19 29.90 1012 10 16 N/A
9:15 am 09:15 undefined 38 3.1 30 -1.3 73 73 SW 9 15 29.89 1012 10 16 N/A
9:35 am 09:35 undefined 39 4.1 31 -0.7 71 71 SW 12 19 29.87 1011 10 16 N/A
9:55 am 09:55 undefined 42 5.5 31 -0.5 66 66 SSW 12 19 29.84 1011 10 16 N/A
10:15 am 10:15 undefined 43 6.1 31 -0.5 63 63 SSW 13 20 29.83 1010 10 16 N/A
10:35 am 10:35 undefined 44 6.6 31 -0.3 62 62 SW 13 20 29.81 1010 10 16 N/A
10:55 am 10:55 undefined 44 6.9 32 undefined 62 62 SSW 13 20 29.81 1009 10 16 N/A
11:15 am 11:15 undefined 44 6.5 32 0.1 64 64 SW 12 19 29.80 1009 10 16 N/A
11:35 am 11:35 undefined 44 6.7 33 0.5 65 65 SW 13 20 29.80 1009 10 16 N/A
11:55 am 11:55 undefined 46 8 33 0.6 60 60 WSW 10 17 29.78 1008 10 16 N/A
12:15 pm 12:15 undefined 47 8.2 35 1.5 63 63 SW 8 13 29.77 1008 10 16 N/A
12:35 pm 12:35 undefined 49 9.3 35 1.9 60 60 SW 9 15 29.73 1007 10 16 N/A
12:55 pm 12:55 undefined 49 9.3 35 1.9 60 60 SW 9 15 29.73 1007 10 16 N/A
1:15 pm 13:15 undefined 51 10.4 36 2.1 57 57 WSW 8 13 29.70 1006 10 16 N/A
1:35 pm 13:35 undefined 52 11.2 37 2.5 55 55 SW 9 15 29.68 1005 10 16 N/A
1:55 pm 13:55 undefined 54 12 37 2.6 53 53 WSW 9 15 29.68 1005 10 16 N/A
2:15 pm 14:15 undefined 50 10.2 37 2.5 59 59 WNW 7 11 29.69 1005 10 16 N/A
2:35 pm 14:35 undefined 53 11.5 37 2.6 55 55 WNW 5 7 29.68 1005 10 16 N/A
2:55 pm 14:55 undefined 54 12.4 36 2.4 51 51 W 6 9 29.67 1005 10 16 N/A
3:15 pm 15:15 undefined 57 14.1 37 2.9 47 47 WNW 5 7 29.65 1004 10 16 N/A
3:35 pm 15:35 undefined 58 14.2 37 2.7 46 46 WNW 5 7 29.65 1004 10 16 N/A
3:55 pm 15:55 undefined 56 13.6 34 0.9 42 42 NW 7 11 29.65 1004 10 16 N/A
4:15 pm 16:15 undefined 55 12.5 33 0.5 44 44 NNW 7 11 29.66 1004 10 16 N/A
4:35 pm 16:35 undefined 52 11.3 33 0.5 48 48 NW 12 19 29.68 1005 10 16 N/A
4:55 pm 16:55 undefined 52 10.9 31 -0.7 45 45 NW 17 28 29.68 1005 10 16 N/A
5:15 pm 17:15 undefined 51 10.3 32 -0.1 49 49 NW 12 19 29.70 1006 10 16 N/A
5:35 pm 17:35 undefined 48 9 32 -0.2 53 53 WNW 13 20 29.72 1006 10 16 N/A
5:55 pm 17:55 undefined 45 7 32 -0.1 61 61 NW 13 20 29.75 1007 10 16 N/A
6:15 pm 18:15 undefined 44 6.6 32 -0.1 63 63 NW 9 15 29.76 1008 10 16 N/A
6:35 pm 18:35 undefined 45 7 32 -0.1 61 61 NW 10 17 29.77 1008 10 16 N/A
6:55 pm 18:55 undefined 44 6.7 32 0.1 63 63 NW 10 17 29.78 1009 10 16 N/A
7:15 pm 19:15 undefined 44 6.7 32 0.2 64 64 NW 9 15 29.78 1009 10 16 N/A
7:35 pm 19:35 undefined 41 5.1 32 0.2 71 71 NW 8 13 29.81 1009 10 16 N/A
7:55 pm 19:55 undefined 41 5 32 undefined 70 70 NW 8 13 29.83 1010 10 16 N/A
8:15 pm 20:15 undefined 41 5.2 32 undefined 69 69 NNW 12 19 29.84 1010 10 16 N/A
8:35 pm 20:35 Clear 42 5.5 32 undefined 68 68 N 10 17 29.86 1011 10 16 N/A
8:55 pm 20:55 Clear 41 4.8 32 undefined 71 71 N 12 19 29.89 1012 10 16 N/A
9:15 pm 21:15 Clear 40 4.7 32 0.2 73 73 N 9 15 29.91 1013 10 16 N/A
9:35 pm 21:35 Clear 41 4.8 32 0.1 72 72 NNW 12 19 29.93 1014 10 16 N/A
9:55 pm 21:55 Clear 41 4.8 32 undefined 71 71 NNW 12 19 29.95 1014 10 16 N/A
10:15 pm 22:15 Clear 40 4.4 31 -0.3 72 72 NNW 13 20 29.96 1015 10 16 N/A
10:35 pm 22:35 Clear 39 4 31 -0.6 72 72 NNW 10 17 29.97 1015 10 16 N/A
10:55 pm 22:55 Clear 39 4 31 -0.8 71 71 NW 9 15 29.99 1015 10 16 N/A
11:15 pm 23:15 Clear 38 3.1 31 -0.8 76 76 NW 10 17 30.01 1016 10 16 N/A
11:35 pm 23:35 Clear 37 2.8 31 -0.6 79 79 NW 12 19 30.01 1016 10 16 N/A
11:55 pm 23:55 Clear 37 2.8 30 -1.1 76 76 NW 13 20 30.03 1017 10 16 N/A

Powered by AerisWeather